EW2835 Weather Reports


Display with metric or nautical units.
time (UTC)temp
F
wind
direction
speed
MPH
gust
MPH
rain 1hr
in
rain 24hr
in
rain mn
in
humidity
%
barometer
mb
20260906033006 54 304 1.0 7.0 0.00 0.06 0.00 91 1023.0
20260906031504 54 273 0.0 6.0 0.00 0.06 0.00 91 1022.9
20260906030002 54 276 1.0 4.0 0.00 0.06 0.00 90 1022.8
20260906024603 55 293 0.0 12.0 0.00 0.06 0.00 90 1022.7
20260906023119 55 275 1.0 4.0 0.00 0.06 0.00 90 1022.6
20260906021611 55 263 0.0 5.0 0.00 0.06 0.00 90 1022.7
20260906020100 55 265 0.0 5.0 0.00 0.06 0.00 90 1022.5
20260906014557 55 283 0.0 5.0 0.00 0.06 0.00 90 1022.4
20260906013052 54 231 0.0 5.0 0.00 0.06 0.00 90 1022.1
20260906011550 55 287 1.0 4.0 0.00 0.06 0.00 90 1021.9
20260906010047 55 267 0.0 3.0 0.00 0.06 0.00 90 1021.8
20260906004545 55 298 1.0 5.0 0.00 0.06 0.00 89 1021.7
20260906003050 55 235 1.0 7.0 0.00 0.06 0.00 89 1021.7
20260906001541 56 317 1.0 4.0 0.00 0.06 0.00 88 1021.6
20260906000140 56 277 0.0 9.0 0.00 0.06 0.00 88 1021.5
20260905234548 56 302 2.0 5.0 0.00 0.06 0.00 87 1021.5
20260905233037 56 259 0.0 6.0 0.00 0.06 0.00 86 1021.5
20260905231533 57 254 1.0 4.0 0.00 0.06 0.00 85 1021.3
20260905230031 57 264 2.0 7.0 0.00 0.06 0.00 84 1021.2
20260905224529 57 295 2.0 7.0 0.00 0.06 0.00 84 1021.1
20260905223029 57 244 1.0 6.0 0.00 0.06 0.00 85 1020.9
20260905221526 57 204 1.0 7.0 0.00 0.06 0.00 85 1020.9
20260905220027 57 294 2.0 5.0 0.00 0.06 0.00 86 1020.8
20260905214521 56 235 2.0 6.0 0.00 0.06 0.06 86 1020.7
20260905213022 57 278 0.0 5.0 0.00 0.06 0.06 86 1020.6
20260905211516 56 273 3.0 8.0 0.00 0.06 0.06 86 1020.3
20260905210015 57 237 1.0 6.0 0.00 0.06 0.06 85 1020.3
20260905204514 57 233 0.0 3.0 0.00 0.06 0.06 84 1020.3
20260905203014 57 265 1.0 8.0 0.00 0.06 0.06 84 1020.1
20260905201511 57 282 3.0 11.0 0.00 0.06 0.06 85 1019.9
20260905200010 57 318 0.0 4.0 0.00 0.06 0.06 85 1019.8
20260905194509 58 279 0.0 2.0 0.00 0.06 0.06 83 1019.6
20260905193011 58 269 1.0 5.0 0.00 0.06 0.06 83 1019.5
20260905191506 58 252 2.0 8.0 0.00 0.06 0.06 82 1019.3
20260905190007 58 282 2.0 8.0 0.00 0.06 0.06 83 1019.1
20260905184505 58 266 2.0 10.0 0.00 0.09 0.06 85 1018.9
20260905183101 57 267 3.0 11.0 0.00 0.09 0.06 86 1018.8
20260905181557 58 273 1.0 10.0 0.00 0.09 0.06 87 1018.6
20260905180054 58 252 0.0 6.0 0.00 0.09 0.06 89 1018.3
20260905174557 58 246 1.0 7.0 0.00 0.15 0.06 90 1018.0
20260905173100 59 260 0.0 4.0 0.00 0.15 0.06 92 1017.8
20260905171548 59 173 0.0 4.0 0.00 0.15 0.06 92 1017.8
20260905170049 59 287 0.0 3.0 0.00 0.15 0.06 92 1017.6
20260905164546 59 253 1.0 4.0 0.00 0.15 0.06 93 1017.4
20260905163051 60 256 0.0 7.0 0.00 0.15 0.06 93 1017.3
20260905160036 59 315 0.0 4.0 0.00 0.15 0.06 93 1016.9
20260905154517 59 267 0.0 5.0 0.02 0.15 0.06 93 1016.8
20260905153016 59 297 1.0 7.0 0.05 0.15 0.06 92 1016.7
20260905151515 58 244 3.0 7.0 0.05 0.15 0.06 91 1016.6
20260905150023 58 302 4.0 15.0 0.05 0.15 0.06 87 1016.7
20260905144536 61 265 6.0 19.0 0.02 0.39 0.04 80 1017.0
20260905143019 64 252 7.0 21.0 0.00 0.37 0.02 72 1016.6
20260905141510 66 186 5.0 15.0 0.01 0.37 0.02 69 1015.4
20260905140008 66 281 3.0 10.0 0.01 0.37 0.02 77 1015.2
20260905134513 67 266 2.0 11.0 0.01 0.37 0.02 73 1015.2
20260905133009 66 244 3.0 9.0 0.01 0.37 0.02 76 1015.3
20260905131507 67 297 4.0 14.0 0.00 0.36 0.01 70 1015.5
20260905130004 71 192 2.0 14.0 0.00 0.36 0.01 62 1014.9
20260905124502 69 265 3.0 8.0 0.00 0.36 0.01 67 1014.8
20260905123002 68 308 3.0 8.0 0.00 0.36 0.01 67 1015.0
20260905121501 66 249 3.0 10.0 0.00 0.36 0.01 69 1015.2
20260905120101 68 275 3.0 17.0 0.00 0.36 0.01 66 1015.2
20260905120002 68 167 3.0 17.0 0.00 0.36 0.01 66 1015.3
20260905114630 69 198 2.0 9.0 0.00 0.36 0.01 67 1015.1
20260905113100 69 123 4.0 14.0 0.00 0.36 0.01 64 1015.3
20260905111557 69 186 2.0 19.0 0.00 0.36 0.01 66 1015.1
20260905110054 71 223 4.0 20.0 0.00 0.36 0.01 62 1014.9
20260905104554 70 121 3.0 11.0 0.00 0.36 0.01 62 1015.0
20260905103053 70 318 2.0 12.0 0.00 0.36 0.01 63 1015.1
20260905101548 66 211 4.0 9.0 0.00 0.36 0.01 70 1015.3
20260905100106 66 81 0.0 10.0 0.00 0.36 0.01 76 1015.1
20260905094550 67 306 3.0 8.0 0.00 0.36 0.01 69 1015.2
20260905093044 67 23 3.0 12.0 0.00 0.36 0.01 68 1015.3
20260905091555 66 239 3.0 11.0 0.00 0.36 0.01 70 1015.1
20260905090040 68 263 3.0 10.0 0.00 0.36 0.01 69 1015.1
20260905084538 67 304 2.0 12.0 0.00 0.36 0.01 71 1015.1
20260905083034 66 227 4.0 9.0 0.00 0.36 0.01 74 1015.0
20260905081531 65 165 2.0 10.0 0.00 0.36 0.01 78 1014.9
20260905080030 65 209 4.0 12.0 0.01 0.36 0.01 78 1014.9
20260905074534 64 201 1.0 6.0 0.01 0.37 0.01 81 1014.6
20260905073032 63 283 2.0 13.0 0.01 0.37 0.01 83 1014.5
20260905071524 62 254 4.0 8.0 0.00 0.36 0.00 84 1014.4
20260905070014 62 256 1.0 11.0 0.00 0.36 0.00 86 1014.3
20260905064513 61 227 2.0 11.0 0.00 0.36 0.00 87 1014.2
20260905063006 60 296 2.0 9.0 0.00 0.36 0.00 90 1014.1
20260905061502 59 249 0.0 5.0 0.00 0.36 0.00 92 1014.0
20260905054601 57 294 1.0 5.0 0.00 0.36 0.00 93 1013.7
20260905053050 57 271 1.0 4.0 0.00 0.36 0.00 95 1013.6
20260905051605 56 236 2.0 10.0 0.00 0.36 0.00 96 1013.5
20260905050045 56 248 1.0 7.0 0.00 0.36 0.00 96 1013.4
20260905044552 56 269 3.0 9.0 0.00 0.36 0.00 96 1013.3
20260905043038 56 263 0.0 8.0 0.00 0.36 0.00 96 1013.2
20260905041535 56 272 1.0 4.0 0.00 0.36 0.00 96 1013.0
20260905040034 56 241 0.0 8.0 0.00 0.36 0.00 96 1012.9
20260905034535 56 163 1.0 4.0 0.00 0.36 0.00 96 1012.8